Wichita Jabara, KS

2:09 AM CDT on April 27, 2018 (GMT -0500)
Col Jabara

Weather History for KAAO - February, 2014

Change the Weather History Date:

Wednesday, February 5, 2014

  Actual Average (KIAB) Record (KIAB)
Temperature  
Mean Temperature 6 °F -  
Max Temperature 10 °F 43 °F 67 °F (2009)
Min Temperature 1 °F 25 °F 2 °F (2014)
Degree Days  
Heating Degree Days 60    
Moisture  
Dew Point -1 °F    
Average Humidity 75    
Maximum Humidity 85    
Minimum Humidity 66    
Precipitation  
Precipitation 0.03 in - - ()
Sea Level Pressure  
Sea Level Pressure 30.55 in    
Wind  
Wind Speed 20 mph (North)    
Max Wind Speed 25 mph    
Max Gust Speed 34 mph    
Visibility 9 miles    
Events Snow    
Averages and records for this station are not official NWS values.
T = Trace of Precipitation, MM = Missing Value Source: NWS Daily Summary

Daily Weather History Graph

Daily Weather History Graph

Search for Another Location

Airport or City:

Astronomy

Feb. 05, 2014 Rise Set
Actual Time 7:29 AM CST 5:57 PM CST
Civil Twilight 7:01 AM CST 6:24 PM CST
Nautical Twilight 6:30 AM CST 6:55 PM CST
Astronomical Twilight 5:59 AM CST 7:26 PM CST
Moon 10:52 AM CST (2/5) No Moon Set
Length of Visible Light 11h 22m
Length of Day
10h 27m
Waxing Crescent, 39% of the Moon is Illuminated
Feb 5
Waxing Crescent
Feb 6
First Quarter
Feb 14
Full
Feb 22
Last Quarter
Mar 1
New

Hourly Weather History & Observations

Time (CST) Temp. Windchill Dew Point Humidity Pressure Visibility Wind Dir Wind Speed Gust Speed Precip Events Conditions
12:09 AM 10.4 °F -9.5 °F 6.8 °F 85% 30.25 in 6.0 mi NNW 23.0 mph 27.6 mph 0.00 in   Overcast
12:52 AM 10.4 °F -9.1 °F 5.0 °F 79% 30.29 in 6.0 mi NNW 21.9 mph 29.9 mph 0.00 in   Haze
12:54 AM 10.0 °F -9.5 °F 5.0 °F 80% 30.36 in 6.0 mi NNW 21.9 mph 29.9 mph 0.00 in   Haze
1:54 AM 9.0 °F -11.4 °F 3.9 °F 80% 30.38 in 3.0 mi North 23.0 mph 33.4 mph 0.01 in Snow Light Snow
2:07 AM 8.6 °F -12.3 °F 3.2 °F 79% 30.31 in 2.5 mi North 24.2 mph 34.5 mph 0.01 in Snow Light Snow
2:29 AM 8.6 °F -12.3 °F 3.2 °F 79% 30.32 in 5.0 mi North 24.2 mph 29.9 mph 0.01 in Snow Light Snow
2:54 AM 7.0 °F -14.9 °F 1.9 °F 80% 30.42 in 5.0 mi North 25.3 mph 34.5 mph 0.01 in   Haze
3:01 AM 6.8 °F -13.4 °F 1.4 °F 79% 30.35 in 8.0 mi North 20.7 mph 29.9 mph N/A   Overcast
3:32 AM 6.8 °F -14.3 °F 1.4 °F 79% 30.37 in 10.0 mi North 23.0 mph - N/A   Mostly Cloudy
3:54 AM 5.0 °F -16.2 °F -0.0 °F 80% 30.46 in 10.0 mi North 21.9 mph 29.9 mph N/A   Mostly Cloudy
4:15 AM 5.0 °F -16.2 °F -0.4 °F 78% 30.39 in 9.0 mi North 21.9 mph - N/A   Overcast
4:34 AM 3.2 °F -17.6 °F -0.4 °F 85% 30.40 in 10.0 mi North 19.6 mph - N/A   Scattered Clouds
4:40 AM 3.2 °F -16.5 °F -0.4 °F 85% 30.40 in 10.0 mi North 17.3 mph - N/A   Mostly Cloudy
4:54 AM 3.9 °F -17.1 °F -0.9 °F 80% 30.51 in 10.0 mi North 20.7 mph 27.6 mph N/A   Scattered Clouds
5:54 AM 3.0 °F -18.8 °F -2.0 °F 80% 30.54 in 10.0 mi North 21.9 mph - N/A   Clear
6:54 AM 1.9 °F -19.2 °F -2.9 °F 80% 30.56 in 10.0 mi North 19.6 mph - N/A   Clear
7:54 AM 1.9 °F -18.1 °F -4.0 °F 76% 30.60 in 10.0 mi North 17.3 mph 26.5 mph 0.01 in   Clear
8:54 AM 1.9 °F -20.7 °F -4.0 °F 76% 30.63 in 10.0 mi North 23.0 mph - N/A   Clear
9:54 AM 3.9 °F -16.6 °F -4.0 °F 70% 30.67 in 10.0 mi North 19.6 mph 29.9 mph N/A   Clear
10:54 AM 5.0 °F -14.7 °F -2.0 °F 73% 30.71 in 10.0 mi North 18.4 mph - N/A   Scattered Clouds
11:54 AM 6.1 °F -14.3 °F -2.0 °F 69% 30.70 in 10.0 mi North 20.7 mph - N/A   Clear
12:54 PM 7.0 °F -12.6 °F -2.0 °F 67% 30.67 in 10.0 mi North 19.6 mph - N/A   Clear
1:54 PM 8.1 °F -10.7 °F -0.9 °F 67% 30.67 in 10.0 mi NNW 18.4 mph - N/A   Clear
2:54 PM 8.1 °F -10.7 °F -0.9 °F 67% 30.67 in 10.0 mi North 18.4 mph - N/A   Clear
3:54 PM 7.0 °F -13.1 °F -2.0 °F 67% 30.69 in 10.0 mi NNW 20.7 mph - N/A   Clear
4:54 PM 7.0 °F -10.4 °F -0.9 °F 70% 30.70 in 10.0 mi North 15.0 mph - N/A   Clear
5:54 PM 6.1 °F -11.6 °F -2.0 °F 69% 30.72 in 10.0 mi North 15.0 mph - N/A   Clear
6:54 PM 6.1 °F -9.5 °F -2.9 °F 67% 30.73 in 10.0 mi NNW 11.5 mph - N/A   Clear
7:54 PM 5.0 °F -9.1 °F -2.9 °F 70% 30.74 in 10.0 mi NNW 9.2 mph - N/A   Clear
8:54 PM 5.0 °F -11.6 °F -4.0 °F 66% 30.71 in 10.0 mi North 12.7 mph - N/A   Mostly Cloudy
9:54 PM 5.0 °F -10.0 °F -4.0 °F 66% 30.71 in 10.0 mi North 10.4 mph - N/A   Overcast
10:54 PM 5.0 °F -9.1 °F -4.0 °F 66% 30.72 in 10.0 mi North 9.2 mph - N/A   Overcast
11:54 PM 3.9 °F -10.4 °F -5.1 °F 66% 30.73 in 10.0 mi North 9.2 mph - N/A   Overcast